Weather History for Dallas Redbird, TX

Change the Weather History Date:

Wednesday, April 10, 2013

  Actual Average Record
Temperature  
Mean Temperature 56 °F -  
Max Temperature 73 °F 72 °F 87 °F (2011)
Min Temperature 39 °F 51 °F 36 °F (2003)
Degree Days  
Heating Degree Days 9    
Growing Degree Days 6 (Base 50)    
Moisture  
Dew Point 43 °F    
Average Humidity 84    
Maximum Humidity 93    
Minimum Humidity 71    
Precipitation  
Precipitation 0.60 in - - ()
Sea Level Pressure  
Sea Level Pressure 29.86 in    
Wind  
Wind Speed 14 mph (NW)    
Max Wind Speed 24 mph    
Max Gust Speed 30 mph    
Visibility 7 miles    
Events Rain    
Averages and records for this station are not official NWS values.
T = Trace of Precipitation, MM = Missing Value Source: NWS Daily Summary

Daily Weather History Graph

Daily Weather History Graph

Search for Another Location

Airport:

Trip Planner

Search our weather history database for the weather conditions in past years. The results will help you decide how hot, cold, wet, or windy it might be!

Date:

Astronomy

Apr. 10, 2013 Rise Set
Actual Time 7:03 AM CDT 7:54 PM CDT
Civil Twilight 6:38 AM CDT 8:19 PM CDT
Nautical Twilight 6:09 AM CDT 8:48 PM CDT
Astronomical Twilight 5:38 AM CDT 9:19 PM CDT
Moon 7:02 AM CDT (4/10) 8:27 PM CDT (4/10)
Length of Visible Light 13h 40m
Length of Day
12h 50m
New Moon, 0% of the Moon is Illuminated
Apr 10
New Moon
Apr 18
First Quarter
Apr 25
Full
May 2
Last Quarter
May 9
New

Hourly Weather History & Observations

Time (CDT) Temp. Windchill Dew Point Humidity Pressure Visibility Wind Dir Wind Speed Gust Speed Precip Events Conditions
12:53 AM 73.0 °F - 66.0 °F 79% 29.69 in 7.0 mi ESE 6.9 mph - N/A   Overcast
1:53 AM 72.0 °F - 66.0 °F 81% 29.69 in 7.0 mi SSE 10.4 mph - N/A   Overcast
2:00 AM 71.6 °F - 66.2 °F 83% 29.71 in 7.0 mi SSE 11.5 mph - N/A   Overcast
2:29 AM 73.4 °F - 66.2 °F 78% 29.72 in 7.0 mi SSE 8.1 mph - N/A   Overcast
2:36 AM 73.4 °F - 66.2 °F 78% 29.72 in 7.0 mi South 8.1 mph - N/A   Overcast
2:53 AM 73.0 °F - 66.9 °F 81% 29.70 in 7.0 mi South 4.6 mph - N/A   Overcast
3:08 AM 73.4 °F - 66.2 °F 78% 29.73 in 7.0 mi West 8.1 mph - N/A   Overcast
3:23 AM 55.4 °F - 48.2 °F 77% 29.74 in 9.0 mi WNW 23.0 mph - 0.00 in Rain Light Rain
3:53 AM 50.0 °F - 46.0 °F 86% 29.72 in 10.0 mi NW 20.7 mph - 0.01 in Rain Light Rain
4:22 AM 48.2 °F - 44.6 °F 87% 29.77 in 10.0 mi NW 21.9 mph - 0.00 in Rain Light Rain
4:34 AM 46.4 °F 39.5 °F 44.6 °F 93% 29.77 in 10.0 mi NW 17.3 mph 26.5 mph 0.00 in Rain Light Rain
4:53 AM 46.0 °F 38.3 °F - N/A% 29.75 in 10.0 mi NW 20.7 mph - 0.01 in   Overcast
5:53 AM 45.0 °F 36.2 °F - N/A% 29.81 in 10.0 mi NW 24.2 mph 29.9 mph N/A   Overcast
6:30 AM 44.6 °F 36.1 °F - N/A% 29.83 in 4.0 mi NW 21.9 mph 25.3 mph N/A   Haze
6:53 AM 45.0 °F 38.2 °F - N/A% 29.83 in 8.0 mi NNW 15.0 mph 24.2 mph N/A   Overcast
7:53 AM 44.1 °F 36.8 °F - N/A% 29.85 in 7.0 mi NNW 16.1 mph 27.6 mph 0.02 in Rain Light Rain
8:53 AM 44.1 °F 37.4 °F 39.9 °F 85% 29.86 in 4.0 mi NNW 13.8 mph 23.0 mph 0.01 in Rain Light Rain
9:09 AM 42.8 °F 35.4 °F 39.2 °F 87% 29.87 in 5.0 mi NW 15.0 mph 24.2 mph 0.01 in Rain Light Rain
9:37 AM 42.8 °F 35.4 °F 39.2 °F 87% 29.88 in 5.0 mi NNW 15.0 mph 24.2 mph 0.01 in Rain Light Rain
9:53 AM 42.1 °F 33.6 °F 39.0 °F 89% 29.87 in 5.0 mi NNW 18.4 mph 23.0 mph 0.01 in Rain Light Rain
10:30 AM 42.8 °F 35.8 °F 39.2 °F 87% 29.91 in 3.0 mi NNW 13.8 mph - 0.01 in Rain Light Rain
10:43 AM 42.8 °F 34.3 °F 39.2 °F 87% 29.93 in 2.0 mi NW 19.6 mph - 0.02 in Rain Light Rain
10:51 AM 42.8 °F 35.4 °F 39.2 °F 87% 29.93 in 1.8 mi NW 15.0 mph 27.6 mph 0.02 in Rain Light Rain
10:53 AM 42.1 °F 33.6 °F 39.0 °F 89% 29.92 in 2.0 mi NNW 18.4 mph 27.6 mph 0.03 in Rain Light Rain
11:10 AM 41.0 °F 32.5 °F 39.2 °F 93% 29.94 in 3.0 mi NW 17.3 mph 26.5 mph 0.00 in Rain Light Rain
11:53 AM 41.0 °F 32.8 °F 37.9 °F 89% 29.94 in 1.8 mi WNW 16.1 mph - 0.10 in Rain Heavy Rain
12:08 PM 39.2 °F 29.8 °F 37.4 °F 93% 29.91 in 1.2 mi NNW 18.4 mph 27.6 mph 0.15 in Rain Heavy Rain
12:17 PM 39.2 °F 30.5 °F 37.4 °F 93% 29.96 in 1.5 mi WNW 16.1 mph - 0.26 in Rain Heavy Rain
12:25 PM 39.2 °F 29.3 °F 37.4 °F 93% 29.93 in 2.0 mi NW 20.7 mph - 0.29 in Rain Rain
12:34 PM 39.2 °F 30.2 °F 37.4 °F 93% 29.91 in 5.0 mi NW 17.3 mph 28.8 mph 0.31 in Rain Rain
12:38 PM 39.2 °F 29.3 °F 37.4 °F 93% 29.95 in 2.5 mi WNW 20.7 mph - 0.36 in Rain Heavy Rain
12:48 PM 39.2 °F 29.8 °F 37.4 °F 93% 29.92 in 4.0 mi NW 18.4 mph - 0.37 in Rain Light Rain
12:53 PM 41.0 °F 30.9 °F 37.9 °F 89% 29.91 in 10.0 mi NW 24.2 mph 28.8 mph 0.38 in Rain Light Rain
1:53 PM 39.9 °F 30.5 °F 37.0 °F 89% 29.91 in 9.0 mi NW 19.6 mph 26.5 mph 0.01 in Rain Light Rain
2:53 PM 41.0 °F 31.9 °F 37.0 °F 86% 29.89 in 10.0 mi NW 19.6 mph 27.6 mph 0.02 in   Overcast
3:53 PM 41.0 °F 31.9 °F 37.0 °F 86% 29.91 in 10.0 mi NW 19.6 mph 23.0 mph N/A   Overcast
4:53 PM 43.0 °F 34.8 °F 37.0 °F 80% 29.91 in 10.0 mi NW 18.4 mph 25.3 mph N/A   Overcast
5:21 PM 44.6 °F 36.9 °F 37.4 °F 76% 29.90 in 10.0 mi NNW 18.4 mph 25.3 mph N/A   Overcast
5:53 PM 45.0 °F 38.2 °F 37.9 °F 76% 29.91 in 10.0 mi NW 15.0 mph - N/A   Overcast
6:48 PM 46.4 °F 40.7 °F 37.4 °F 71% 29.90 in 10.0 mi NNW 12.7 mph 20.7 mph N/A   Scattered Clouds
6:53 PM 46.0 °F 41.0 °F 37.0 °F 71% 29.91 in 10.0 mi NNW 10.4 mph 20.7 mph N/A   Partly Cloudy
7:53 PM 45.0 °F 40.1 °F 37.0 °F 74% 29.92 in 10.0 mi NNW 9.2 mph - N/A   Clear
8:53 PM 44.1 °F 38.6 °F 37.0 °F 76% 29.94 in 10.0 mi NW 10.4 mph - N/A   Clear
9:53 PM 44.1 °F 38.6 °F 37.0 °F 76% 29.96 in 10.0 mi NW 10.4 mph - N/A   Clear
10:53 PM 43.0 °F 35.4 °F 36.0 °F 76% 29.96 in 10.0 mi NNW 16.1 mph 21.9 mph N/A   Clear
11:53 PM 41.0 °F 34.7 °F 34.0 °F 76% 29.97 in 10.0 mi NNW 10.4 mph - N/A   Clear